EW1243 Weather Reports


time (UTC)temp
F
wind
direction
speed
knots
gust
knots
rain 1hr
in
rain 24hr
in
rain mn
in
humidity
%
barometer
mb
20260510153049 45 125 0.0 0.0 0.00 0.00 0.00 92 1032.8
20260510151551 45 125 0.0 0.0 0.00 0.00 0.00 92 1032.8
20260510150056 46 125 0.0 0.0 0.00 0.00 0.00 91 1032.8
20260510144603 46 125 0.0 0.0 0.00 0.00 0.00 91 1032.9
20260510143040 47 125 0.0 0.0 0.00 0.00 0.00 91 1033.0
20260510141538 47 125 0.0 0.0 0.00 0.00 0.00 91 1033.1
20260510140035 48 125 0.0 1.7 0.00 0.00 0.00 90 1033.1
20260510134534 48 125 0.0 0.0 0.00 0.00 0.00 90 1033.0
20260510133043 49 125 0.0 0.0 0.00 0.00 0.00 89 1032.9
20260510131536 50 125 0.0 0.0 0.00 0.00 0.00 89 1033.0
20260510130033 50 125 0.0 0.0 0.00 0.00 0.00 89 1033.1
20260510124532 50 125 0.0 2.6 0.00 0.00 0.00 89 1033.1
20260510123032 50 125 0.0 0.9 0.00 0.00 0.00 89 1033.3
20260510121532 50 125 0.0 0.0 0.00 0.00 0.00 87 1033.3
20260510120031 51 125 0.0 0.0 0.00 0.00 0.00 87 1033.2
20260510114549 52 125 0.0 0.0 0.00 0.00 0.00 86 1033.2
20260510113039 52 125 0.0 1.7 0.00 0.00 0.00 86 1033.2
20260510111532 53 125 0.0 0.0 0.00 0.00 0.00 84 1032.9
20260510110034 54 125 0.0 3.5 0.00 0.00 0.00 84 1032.8
20260510104523 54 70 0.0 3.5 0.00 0.00 0.00 83 1032.6
20260510103023 55 65 1.7 7.8 0.00 0.00 0.00 82 1032.5
20260510101522 55 70 1.7 9.6 0.00 0.00 0.00 82 1032.6
20260510100030 55 67 0.0 7.8 0.00 0.00 0.00 81 1032.4
20260510094524 56 103 1.7 5.2 0.00 0.00 0.00 80 1032.2
20260510093018 56 96 0.0 7.0 0.00 0.00 0.00 79 1032.2
20260510091515 57 125 0.0 3.5 0.00 0.00 0.00 78 1032.0
20260510090015 57 125 0.0 1.7 0.00 0.00 0.00 77 1031.6
20260510084511 58 126 0.9 5.2 0.00 0.00 0.00 76 1031.2
20260510083015 59 109 2.6 9.6 0.00 0.00 0.00 73 1030.9
20260510081508 60 105 1.7 7.8 0.00 0.00 0.00 69 1030.5
20260510080007 60 42 2.6 7.8 0.00 0.00 0.00 66 1030.1
20260510074507 61 36 0.0 0.0 0.00 0.00 0.00 61 1029.9
20260510073008 62 36 0.0 0.0 0.00 0.00 0.00 58 1029.5
20260510071506 64 36 0.0 1.7 0.00 0.00 0.00 56 1029.3
20260510070006 65 35 0.0 3.5 0.00 0.00 0.00 55 1029.1
20260510064504 66 35 0.0 2.6 0.00 0.00 0.00 54 1028.8
20260510063004 66 36 0.0 5.2 0.00 0.00 0.00 52 1028.7
20260510061504 67 46 1.7 5.2 0.00 0.00 0.00 51 1028.6
20260510060104 67 46 1.7 3.5 0.00 0.00 0.00 50 1028.5
20260510060002 67 46 0.9 3.5 0.00 0.00 0.00 51 1028.4
20260510054606 68 44 0.0 4.3 0.00 0.00 0.00 50 1028.4
20260510054502 68 44 0.0 4.3 0.00 0.00 0.00 50 1028.4
20260510053059 68 24 0.0 4.3 0.00 0.00 0.00 50 1028.3
20260510051558 68 20 1.7 7.0 0.00 0.00 0.00 50 1028.3
20260510044606 68 346 2.6 5.2 0.00 0.00 0.00 51 1028.2
20260510043059 68 319 1.7 7.8 0.00 0.00 0.00 51 1028.2
20260510041558 68 291 1.7 7.0 0.00 0.00 0.00 52 1028.3
20260510040055 68 292 0.0 4.3 0.00 0.00 0.00 52 1028.4
20260510034553 67 304 0.0 5.2 0.00 0.00 0.00 53 1028.5
20260510033115 67 302 1.7 7.0 0.00 0.00 0.00 54 1028.5
20260510031604 66 317 0.0 2.6 0.00 0.00 0.00 55 1028.6
20260510030050 66 319 0.9 4.3 0.00 0.00 0.00 57 1028.8
20260510024548 66 327 0.0 3.5 0.00 0.00 0.00 56 1029.0
20260510023046 65 327 0.0 4.3 0.00 0.00 0.00 57 1029.4
20260510021544 65 329 0.9 5.2 0.00 0.00 0.00 58 1029.7
20260510020041 64 306 0.9 5.2 0.00 0.00 0.00 60 1030.0
20260510014538 63 292 1.7 4.3 0.00 0.00 0.00 60 1030.1
20260510013040 62 292 0.0 0.0 0.00 0.00 0.00 62 1030.4
20260510011534 61 291 0.0 0.0 0.00 0.00 0.00 64 1030.5
20260510010028 60 291 0.0 0.0 0.00 0.00 0.00 65 1030.6
20260510004524 59 292 0.0 0.0 0.00 0.00 0.00 66 1030.7
20260510003022 58 291 0.0 0.0 0.00 0.00 0.00 67 1030.7
20260510001533 57 291 0.0 0.0 0.00 0.00 0.00 69 1030.8
20260510000015 56 291 0.0 0.0 0.00 0.00 0.00 71 1030.8
20260509234514 54 291 0.0 0.0 0.00 0.00 0.00 73 1030.9
20260509233008 53 291 0.0 0.0 0.00 0.00 0.00 75 1030.8
20260509231506 52 291 0.0 0.0 0.00 0.00 0.00 79 1030.9
20260509230107 49 291 0.0 0.0 0.00 0.00 0.00 82 1031.0
20260509224554 48 291 0.0 0.0 0.00 0.00 0.00 85 1031.0
20260509223057 46 291 0.0 0.0 0.00 0.00 0.00 88 1030.9
20260509221549 44 291 0.0 0.0 0.00 0.00 0.00 93 1030.8
20260509220055 41 291 0.0 0.0 0.00 0.00 0.00 94 1030.7
20260509214542 39 291 0.0 0.0 0.00 0.00 0.00 94 1030.6
20260509213040 37 291 0.0 0.0 0.00 0.00 0.00 94 1030.4
20260509211539 0 0.0 0.0 0.00 0.00 0.00 1030.1
20260509210033 0 0.0 0.0 0.00 0.00 0.00 1029.9
20260509204532 0 0.0 0.0 0.00 0.00 0.00 1029.7
20260509203020 0 0.0 0.0 0.00 0.00 0.00 1029.5
20260509201517 0 0.0 0.0 0.00 0.00 0.00 1029.5
20260509200013 0 0.0 0.0 0.00 0.00 0.00 1029.3
20260509194509 0 0.0 0.0 0.00 0.00 0.00 1029.2
20260509193004 36 291 0.0 0.0 0.00 0.00 0.00 93 1029.1
20260509191503 36 291 0.0 0.0 0.00 0.00 0.00 93 1028.8
20260509190107 36 291 0.0 0.0 0.00 0.00 0.00 93 1028.6
20260509184600 37 291 0.0 0.0 0.00 0.00 0.00 93 1028.5
20260509183059 37 291 0.0 0.0 0.00 0.00 0.00 93 1028.3
20260509181603 37 291 0.0 0.0 0.00 0.00 0.00 93 1028.2
20260509180058 37 291 0.0 0.0 0.00 0.00 0.00 93 1028.0
20260509174602 37 291 0.0 0.0 0.00 0.00 0.00 93 1027.9
20260509173107 37 291 0.0 0.0 0.00 0.00 0.00 93 1027.8
20260509171555 38 291 0.0 0.0 0.00 0.00 0.00 93 1027.9
20260509170120 38 291 0.0 0.0 0.00 0.00 0.00 92 1027.9
20260509164548 38 291 0.0 0.0 0.00 0.00 0.00 92 1027.9
20260509163047 38 291 0.0 0.0 0.00 0.00 0.00 92 1027.8
20260509161544 39 291 0.0 0.0 0.00 0.00 0.00 92 1027.7
20260509160043 39 291 0.0 0.0 0.00 0.00 0.00 92 1027.8
20260509154547 39 291 0.0 0.0 0.00 0.00 0.00 92 1027.9